Location: Chuathbaluk
(61.5726°N, 159.2454°W)
Time: 04:08:55
(UTC+00:00)

Transit 2A - Pass Details

Date: 01 December 2020
Orbit: 599 x 960 km, 66.7° (Epoch: 26 January)

Event Time Altitude Azimuth Distance (km) Brightness Sun altitude
Rises 06:02:31 0° 247° (WSW) 3,586 10.2 -30.5°
Reaches altitude 10° 06:05:09 10° 250° (WSW) 2,610 9.4 -30.8°
Enters shadow 06:10:34 64° 292° (WNW) 962 6.5 -31.5°
Maximum altitude 06:11:13 70° 334° (NNW) 920 - -31.6°
Drops below altitude 10° 06:16:46 10° 59° (ENE) 2,392 - -32.2°
Sets 06:19:06 0° 61° (ENE) 3,267 - -32.5°
